SCP
0 0 0 0 0 0 0 0 0 0 0 0 0 0 0 0 0 0 0 0 0 0 0 0 0 0 0 0 0 0 0 0 0 0 0 0 0 0 0 0 0 0 0
0 0 0 0 0 0 0 0 0 0 0 0 0 0 0 0 0 0 0 0 0 0 0 0 0 0 0 0 0 0 0 0 0 0 0 0 0 0 0 0 0 0 0
0 0 0 0 0 0 0 0 0 0 0 0 0 0 0 0 0 0 0 0 0 0 0 0 0 0 0 0 0 0 0 0 0 0 0 0 0 0 0 0 0 0 0
0 0 0 0 0 0 0 0 0 0 0 0 0 0 0 0 0 0 0 0 0 0 0 0 0 0 0 0 0 0 0 0 0 0 0 0 0 0 0 0 0 0 0
0 0 0 0 0 0 0 0 0 0 0 0 0 0 0 0 0 0 0 0 0 0 0 0 0 0 0 0 0 0 0 0 0 0 0 0 0 0 0 0 0 0 0
0 0 0 0 0 0 0 0 0 0 0 0 0 0 0 0 0 0 0 0 0 0 0 0 0 0 0 0 0 0 0 0 0 0 0 0 0 0 0 0 0 0 0
0 0 0 0 0 0 0 0 0 0 0 0 0 0 0 0 0 0 0 0 0 0 0 0 0 0 0 0 0 0 0 0 0 0 0 0 0 0 0 0 0 0 0
0 0 0 0 0 0 0 0 0 0 0 0 -0 -0 0 0 0 0 0 0 0 0 0 0 0 0 0 0 0 0 0 0 0 0 0 0 0 0 0 0 0 0 0
0 0 0 0 0 0 0 0 0 0 0 -0 0 0 0 0 0 0 0 0 0 0 0 0 0 0 0 0 0 0 0 0 0 0 0 0 0 0 0 0 0 0 0
0 0 0 0 0 0 0 0 0 0 0 0 0 0 0 0 0 0 0 0 0 0 0 0 0 0 0 0 0 0 0 0 0 0 0 0 0 0 0 0 0 0 0
0 0 0 0 0 0 0 0 0 0 0 0 0 0 0 0 0 0 0 0 0 0 0 0 0 0 0 0 0 0 0 0 0 0 0 0 0 0 0 0 0 0 0
0 0 0 0 0 0 0 0 0 0 0 0 0 0 0 0 0 0 0 0 0 0 0 0 0 0 0 0 0 0 0 0 0 0 0 0 0 0 0 0 0 0 0
0 0 0 0 0 0 0 0 0 0 0 0 0 0 0 0 0 0 0 0 0 0 0 0 0 0 0 0 0 0 0 0 0 0 0 0 0 0 0 0 0 0 0
0 0 0 0 0 0 0 0 0 0 0 0 0 0 0 0 0 0 0 0 0 0 0 0 0 0 0 0 0 0 0 0 0 0 0 0 0 0 0 0 0 0 0
0 0 0 0 0 0 0 0 0 0 0 0 0 0 0 0 0 0 0 0 0 0 0 0 0 0 0 0 0 0 0 0 0 0 0 0 0 0 0 0 0 0 0
0 0 0 0 0 0 0 0 0 0 0 0 0 0 0 0 0 0 0 0 0 0 0 0 0 0 0 0 0 0 0 0 0 0 0 0 0 0 0 0 0 0 0
0 0 0 0 0 0 0 0 0 0 0 0 0 0 0 0 0 0 0 0 0 0 0 0 0 0 0 0 0 0 0 0 0 0 0 0 0 0 0 0 0 0 0
0 0 0 0 0 0 0 0 0 0 0 0 0 0 0 0 0 0 0 0 0 0 0 0 0 0 0 0 0 0 0 0 0 0 0 0 0 0 0 0 0 0 0
0 0 0 0 0 0 0 0 0 0 0 0 0 0 0 0 0 0 0 0 0 0 0 0 0 0 0 0 0 0 0 0 0 0 0 0 0 0 0 0 0 0 0
0 0 0 0 0 0 0 0 0 0 0 0 0 0 0 0 0 0 0 0 0 0 0 0 0 0 0 0 0 0 0 0 0 0 0 0 0 0 0 0 0 0 0
0 0 0 0 0 0 0 0 0 0 0 0 0 0 0 0 0 0 0 0 0 0 0 0 0 0 0 0 0 0 0 0 0 0 0 0 0 0 0 0 0 0 0
0 0 0 0 0 0 0 0 0 0 0 0 0 0 0 0 0 0 0 0 0 0 0 0 0 0 0 0 0 0 0 0 0 0 0 0 0 0 0 0 0 0 0
0 0 0 0 0 0 0 0 0 0 0 0 0 0 0 0 0 0 0 0 0 0 0 0 0 0 0 0 0 0 0 0 0 0 0 0 0 0 0 0 0 0 0
0 0 0 0 0 0 0 0 0 0 0 0 0 0 0 0 0 0 0 0 0 0 0 0 0 0 0 0 0 0 0 0 0 0 0 0 0 0 0 0 0 0 0
0 0 0 0 0 0 0 0 0 0 0 0 0 0 0 0 0 0 0 0 0 0 0 0 0 0 0 0 0 0 0 0 0 0 0 0 0 0 0 0 0 0 0
0 0 0 0 0 0 0 0 0 0 0 0 0 0 0 0 0 0 0 0 0 0 0 0 0 0 0 0 0 0 0 0 0 0 0 0 0 0 0 0 0 0 0
Wind_Speed_500mb
62 65 66 65 67 70 74 73 71 74 68 64 61 62 64 60 56 54 51 50 49 47 45 43 40 40 40 36 34 34 37 35 34 32 31 34 37 36 34 33 36 34 34
79 75 68 67 72 70 75 76 76 74 74 74 69 70 67 65 59 56 56 56 55 53 53 50 48 47 46 43 41 40 42 42 43 41 35 34 35 38 44 42 40 40 38
84 81 74 71 72 79 75 76 79 79 75 76 74 76 71 71 69 69 65 63 60 59 58 56 53 52 53 51 47 44 43 47 49 50 47 20 33 39 46 49 48 45 42
78 81 79 76 75 76 71 77 75 79 78 76 80 85 85 81 75 74 71 68 64 63 62 61 60 57 59 59 55 52 49 46 52 54 58 62 59 42 36 44 52 52 49
85 83 84 76 80 72 73 75 79 77 79 80 83 86 89 87 78 77 78 74 69 68 68 67 66 65 64 65 62 61 60 56 52 58 61 63 73 74 60 52 53 59 61
91 89 75 69 70 76 78 75 79 80 80 80 80 85 88 90 86 79 78 75 73 73 75 73 72 70 70 69 69 67 67 69 67 65 69 74 71 67 78 82 84 80 69
82 93 95 95 85 78 84 85 80 78 76 78 80 82 84 86 84 80 76 77 75 75 74 73 74 74 73 72 72 75 77 78 80 79 81 81 86 88 89 86 84 82 75
49 62 72 81 85 89 82 83 86 80 78 74 74 74 77 79 78 78 79 78 77 75 73 72 71 73 74 74 76 78 81 85 88 90 87 87 87 92 94 95 90 84 80
31 38 46 58 76 82 82 85 84 80 81 73 68 71 70 73 73 72 74 74 73 73 73 72 70 69 69 70 74 79 82 86 89 94 97 98 97 92 90 95 97 99 74
44 38 34 43 58 72 77 78 79 82 79 74 74 70 68 66 66 71 72 72 72 73 73 73 69 67 66 66 69 73 71 76 79 85 91 98 102 105 102 101 102 101 108
50 52 44 42 43 55 69 74 75 76 78 79 77 74 70 68 68 69 70 71 71 72 73 71 69 68 67 68 66 66 67 72 76 80 87 87 80 95 100 102 107 107 103
42 41 42 40 38 42 48 53 59 65 67 64 64 67 70 69 69 70 69 68 69 68 70 69 68 67 66 61 67 69 69 73 76 82 86 83 83 91 89 86 92 99 99
47 43 39 36 34 34 38 43 47 51 53 55 59 61 64 67 69 68 67 69 69 68 66 65 65 64 62 63 65 69 69 73 77 71 69 75 78 86 100 81 84 88 98
44 40 40 40 40 40 41 40 38 39 42 46 49 53 55 58 61 63 65 66 67 68 69 68 66 64 64 67 69 73 70 71 74 76 81 82 80 86 80 75 76 88 90
47 48 42 40 38 36 34 32 30 28 30 33 36 38 41 44 45 46 48 50 51 52 54 55 55 57 62 65 67 70 71 77 79 77 75 74 72 69 69 73 73 70 80
65 54 41 37 40 39 36 32 31 31 33 34 35 37 37 36 36 36 35 34 34 34 37 39 42 48 55 62 66 69 68 69 73 76 74 73 72 77 75 73 73 67 62
78 58 48 41 44 43 37 33 31 32 32 31 32 32 32 31 31 31 31 30 31 33 35 38 41 45 49 52 55 58 63 64 66 69 71 69 67 69 63 64 67 64 72
80 60 49 48 42 46 37 36 34 30 28 26 26 29 30 30 31 31 31 33 35 36 37 40 44 45 46 49 51 54 52 50 47 46 48 51 52 51 53 57 58 59 56
85 66 53 51 48 46 39 35 32 31 32 33 35 34 33 32 32 33 35 36 37 38 40 41 44 46 44 47 48 44 42 42 43 43 45 49 49 49 51 53 50 51 52
76 69 62 52 52 49 43 40 37 35 39 41 40 37 36 35 34 34 32 31 31 32 32 36 38 39 39 42 41 40 39 40 44 44 43 46 44 42 38 37 38 44 46
75 66 56 61 57 54 49 46 42 42 43 43 41 39 36 34 31 28 25 23 23 25 26 29 31 32 32 32 32 31 40 42 43 43 40 42 43 37 29 28 33 37 39
79 67 60 60 59 55 50 49 48 46 48 46 42 38 33 27 23 17 14 13 13 13 15 16 20 24 25 25 27 29 34 38 37 38 37 35 33 30 29 29 29 35 40
67 56 54 57 60 59 56 52 49 49 48 44 38 34 28 24 18 14 11 8 9 10 12 14 17 19 21 24 25 25 31 36 36 34 33 30 26 24 24 24 27 32 40
59 59 61 61 57 56 54 51 51 51 48 46 41 35 29 23 18 14 12 12 14 16 14 11 12 14 18 21 22 24 24 28 30 33 33 33 29 25 24 26 29 39 45
53 55 58 57 53 52 54 55 53 52 51 46 41 37 33 26 20 17 13 13 13 8 7 6 7 9 11 16 20 22 23 24 28 30 33 32 29 29 28 31 35 40 47
62 61 56 53 51 51 53 54 53 50 47 46 42 37 32 29 26 22 19 15 11 7 6 7 11 14 17 19 20 23 26 29 29 29 29 29 30 32 29 27 31 36 44
Wind_Direction_500mb
236 232 229 226 227 223 222 223 227 230 229 227 227 230 232 229 227 230 232 234 236 236 240 242 242 245 249 253 257 257 250 242 239 241 240 250 267 271 256 286 290 292 295
237 233 232 228 228 224 221 221 225 228 229 231 232 235 239 238 237 235 236 236 238 241 243 246 248 249 253 253 253 255 255 246 240 240 241 247 254 247 263 273 278 281 284
241 233 231 229 227 225 223 222 223 228 230 232 233 237 242 243 241 239 238 238 240 242 246 250 252 254 255 257 257 256 258 253 243 243 241 247 253 259 258 260 263 268 269
242 238 237 232 229 229 228 229 228 228 231 232 234 238 241 242 244 245 246 245 245 248 249 251 253 254 257 256 256 255 257 254 248 247 248 251 260 267 268 265 262 264 268
238 237 241 238 235 233 233 233 232 232 232 233 235 239 243 250 251 252 252 252 252 252 253 254 255 255 256 258 258 255 253 253 251 246 249 253 254 258 261 269 265 263 266
239 238 234 235 238 236 235 236 235 235 234 235 237 241 245 249 253 254 255 255 255 256 256 256 257 258 259 260 260 260 256 254 252 249 246 249 254 258 260 260 264 266 268
242 240 237 237 239 240 234 235 236 236 238 238 240 242 246 249 254 256 256 257 258 258 259 259 259 261 263 263 263 260 258 256 254 253 252 253 256 261 267 268 266 263 264
236 236 236 237 237 237 236 235 236 236 238 241 243 246 249 249 252 254 256 257 258 261 263 263 263 265 267 267 266 264 263 261 260 258 258 260 260 260 263 266 265 260 262
232 234 230 228 230 234 236 236 236 239 241 242 245 248 249 249 251 253 255 257 260 261 264 266 267 268 268 269 269 268 268 267 267 265 262 262 264 262 263 262 264 263 256
233 226 222 226 227 230 235 237 239 242 245 244 244 247 253 256 257 257 257 260 263 266 269 272 273 275 275 276 276 277 277 276 275 274 272 269 268 267 266 265 267 266 258
233 224 225 227 230 231 231 235 238 241 244 246 247 249 252 255 258 261 263 265 269 271 275 278 280 280 280 279 282 280 280 277 277 278 275 278 282 277 276 272 271 272 267
222 220 222 225 226 223 221 227 233 239 243 246 247 247 250 254 257 260 263 268 272 273 273 276 277 278 278 278 276 280 277 280 282 280 281 280 284 286 277 281 281 287 269
209 212 212 211 209 208 213 219 227 235 240 241 241 243 246 250 255 261 265 265 266 268 271 272 273 274 274 274 274 274 277 275 279 279 283 285 285 284 288 285 284 293 267
201 205 209 209 210 212 214 217 222 227 231 234 239 243 247 250 252 254 258 262 265 267 266 266 265 264 266 268 270 274 275 274 276 279 279 278 277 279 281 284 290 281 263
192 190 190 192 192 192 195 199 202 207 215 221 227 234 239 244 248 252 254 256 259 262 264 266 265 262 262 265 268 270 272 274 276 277 278 279 281 285 284 281 284 286 270
189 189 187 190 191 191 194 199 206 211 216 221 227 233 238 241 243 245 249 252 255 258 260 262 261 260 260 262 266 269 270 271 272 274 275 280 285 286 286 283 282 283 272
195 192 193 194 200 201 204 211 219 225 228 231 235 240 243 244 246 248 251 255 257 259 262 264 266 267 269 272 273 274 275 277 279 279 279 279 279 282 285 284 282 283 274
202 202 204 206 207 204 212 215 218 222 226 230 234 238 240 243 247 250 253 255 258 261 263 267 269 272 274 275 277 277 280 285 292 295 294 292 288 286 286 284 285 280 270
211 211 217 213 207 206 208 207 209 217 226 232 233 234 237 242 247 250 252 256 260 264 268 271 274 276 278 280 281 284 288 294 295 293 293 292 290 287 283 283 282 273 264
214 213 213 211 209 210 210 213 219 232 237 236 234 235 239 243 245 248 252 255 260 265 270 273 277 280 281 283 284 285 284 283 286 288 287 289 292 290 292 286 279 270 262
212 212 216 212 211 212 215 218 228 237 236 230 228 230 232 233 235 238 244 255 265 273 278 284 286 288 292 295 296 289 292 292 292 293 293 294 294 293 291 292 282 271 266
210 213 214 212 212 214 220 227 231 229 224 222 220 220 219 219 222 229 244 260 272 288 300 309 312 306 306 302 299 298 293 294 298 303 300 299 303 306 297 284 274 262 260
209 208 206 211 214 219 222 224 225 219 215 213 207 203 203 203 203 208 212 232 264 282 298 308 312 313 312 313 314 303 297 299 302 299 302 306 311 309 299 283 270 259 258
208 214 212 214 217 218 219 220 216 211 205 199 195 192 191 192 195 209 225 251 266 272 276 293 303 307 310 313 319 316 311 300 299 296 299 297 295 299 291 280 269 264 263
207 212 212 212 215 218 215 209 204 201 196 192 190 188 186 190 200 211 222 237 246 252 296 301 305 319 321 323 334 331 324 319 309 307 302 301 298 294 294 291 286 280 274
208 205 207 211 209 207 204 200 195 193 194 189 187 187 193 195 199 204 211 218 223 253 296 348 3 360 345 348 350 350 345 338 333 327 323 314 312 313 312 306 302 294 291
Wind_Speed_850mb
62 65 66 65 67 70 74 73 71 74 68 64 61 62 64 60 56 54 51 50 49 47 45 43 40 40 40 36 34 34 37 35 34 32 31 34 37 36 34 33 36 34 34
79 75 68 67 72 70 75 76 76 74 74 74 69 70 67 65 59 56 56 56 55 53 53 50 48 47 46 43 41 40 42 42 43 41 35 34 35 38 44 42 40 40 38
84 81 74 71 72 79 75 76 79 79 75 76 74 76 71 71 69 69 65 63 60 59 58 56 53 52 53 51 47 44 43 47 49 50 47 20 33 39 46 49 48 45 42
78 81 79 76 75 76 71 77 75 79 78 76 80 85 85 81 75 74 71 68 64 63 62 61 60 57 59 59 55 52 49 46 52 54 58 62 59 42 36 44 52 52 49
85 83 84 76 80 72 73 75 79 77 79 80 83 86 89 87 78 77 78 74 69 68 68 67 66 65 64 65 62 61 60 56 52 58 61 63 73 74 60 52 53 59 61
91 89 75 69 70 76 78 75 79 80 80 80 80 85 88 90 86 79 78 75 73 73 75 73 72 70 70 69 69 67 67 69 67 65 69 74 71 67 78 82 84 80 69
82 93 95 95 85 78 84 85 80 78 76 78 80 82 84 86 84 80 76 77 75 75 74 73 74 74 73 72 72 75 77 78 80 79 81 81 86 88 89 86 84 82 75
49 62 72 81 85 89 82 83 86 80 78 74 74 74 77 79 78 78 79 78 77 75 73 72 71 73 74 74 76 78 81 85 88 90 87 87 87 92 94 95 90 84 80
31 38 46 58 76 82 82 85 84 80 81 73 68 71 70 73 73 72 74 74 73 73 73 72 70 69 69 70 74 79 82 86 89 94 97 98 97 92 90 95 97 99 74
44 38 34 43 58 72 77 78 79 82 79 74 74 70 68 66 66 71 72 72 72 73 73 73 69 67 66 66 69 73 71 76 79 85 91 98 102 105 102 101 102 101 108
50 52 44 42 43 55 69 74 75 76 78 79 77 74 70 68 68 69 70 71 71 72 73 71 69 68 67 68 66 66 67 72 76 80 87 87 80 95 100 102 107 107 103
42 41 42 40 38 42 48 53 59 65 67 64 64 67 70 69 69 70 69 68 69 68 70 69 68 67 66 61 67 69 69 73 76 82 86 83 83 91 89 86 92 99 99
47 43 39 36 34 34 38 43 47 51 53 55 59 61 64 67 69 68 67 69 69 68 66 65 65 64 62 63 65 69 69 73 77 71 69 75 78 86 100 81 84 88 98
44 40 40 40 40 40 41 40 38 39 42 46 49 53 55 58 61 63 65 66 67 68 69 68 66 64 64 67 69 73 70 71 74 76 81 82 80 86 80 75 76 88 90
47 48 42 40 38 36 34 32 30 28 30 33 36 38 41 44 45 46 48 50 51 52 54 55 55 57 62 65 67 70 71 77 79 77 75 74 72 69 69 73 73 70 80
65 54 41 37 40 39 36 32 31 31 33 34 35 37 37 36 36 36 35 34 34 34 37 39 42 48 55 62 66 69 68 69 73 76 74 73 72 77 75 73 73 67 62
78 58 48 41 44 43 37 33 31 32 32 31 32 32 32 31 31 31 31 30 31 33 35 38 41 45 49 52 55 58 63 64 66 69 71 69 67 69 63 64 67 64 72
80 60 49 48 42 46 37 36 34 30 28 26 26 29 30 30 31 31 31 33 35 36 37 40 44 45 46 49 51 54 52 50 47 46 48 51 52 51 53 57 58 59 56
85 66 53 51 48 46 39 35 32 31 32 33 35 34 33 32 32 33 35 36 37 38 40 41 44 46 44 47 48 44 42 42 43 43 45 49 49 49 51 53 50 51 52
76 69 62 52 52 49 43 40 37 35 39 41 40 37 36 35 34 34 32 31 31 32 32 36 38 39 39 42 41 40 39 40 44 44 43 46 44 42 38 37 38 44 46
75 66 56 61 57 54 49 46 42 42 43 43 41 39 36 34 31 28 25 23 23 25 26 29 31 32 32 32 32 31 40 42 43 43 40 42 43 37 29 28 33 37 39
79 67 60 60 59 55 50 49 48 46 48 46 42 38 33 27 23 17 14 13 13 13 15 16 20 24 25 25 27 29 34 38 37 38 37 35 33 30 29 29 29 35 40
67 56 54 57 60 59 56 52 49 49 48 44 38 34 28 24 18 14 11 8 9 10 12 14 17 19 21 24 25 25 31 36 36 34 33 30 26 24 24 24 27 32 40
59 59 61 61 57 56 54 51 51 51 48 46 41 35 29 23 18 14 12 12 14 16 14 11 12 14 18 21 22 24 24 28 30 33 33 33 29 25 24 26 29 39 45
53 55 58 57 53 52 54 55 53 52 51 46 41 37 33 26 20 17 13 13 13 8 7 6 7 9 11 16 20 22 23 24 28 30 33 32 29 29 28 31 35 40 47
62 61 56 53 51 51 53 54 53 50 47 46 42 37 32 29 26 22 19 15 11 7 6 7 11 14 17 19 20 23 26 29 29 29 29 29 30 32 29 27 31 36 44
Wind_Direction_850mb
236 232 229 226 227 223 222 223 227 230 229 227 227 230 232 229 227 230 232 234 236 236 240 242 242 245 249 253 257 257 250 242 239 241 240 250 267 271 256 286 290 292 295
237 233 232 228 228 224 221 221 225 228 229 231 232 235 239 238 237 235 236 236 238 241 243 246 248 249 253 253 253 255 255 246 240 240 241 247 254 247 263 273 278 281 284
241 233 231 229 227 225 223 222 223 228 230 232 233 237 242 243 241 239 238 238 240 242 246 250 252 254 255 257 257 256 258 253 243 243 241 247 253 259 258 260 263 268 269
242 238 237 232 229 229 228 229 228 228 231 232 234 238 241 242 244 245 246 245 245 248 249 251 253 254 257 256 256 255 257 254 248 247 248 251 260 267 268 265 262 264 268
238 237 241 238 235 233 233 233 232 232 232 233 235 239 243 250 251 252 252 252 252 252 253 254 255 255 256 258 258 255 253 253 251 246 249 253 254 258 261 269 265 263 266
239 238 234 235 238 236 235 236 235 235 234 235 237 241 245 249 253 254 255 255 255 256 256 256 257 258 259 260 260 260 256 254 252 249 246 249 254 258 260 260 264 266 268
242 240 237 237 239 240 234 235 236 236 238 238 240 242 246 249 254 256 256 257 258 258 259 259 259 261 263 263 263 260 258 256 254 253 252 253 256 261 267 268 266 263 264
236 236 236 237 237 237 236 235 236 236 238 241 243 246 249 249 252 254 256 257 258 261 263 263 263 265 267 267 266 264 263 261 260 258 258 260 260 260 263 266 265 260 262
232 234 230 228 230 234 236 236 236 239 241 242 245 248 249 249 251 253 255 257 260 261 264 266 267 268 268 269 269 268 268 267 267 265 262 262 264 262 263 262 264 263 256
233 226 222 226 227 230 235 237 239 242 245 244 244 247 253 256 257 257 257 260 263 266 269 272 273 275 275 276 276 277 277 276 275 274 272 269 268 267 266 265 267 266 258
233 224 225 227 230 231 231 235 238 241 244 246 247 249 252 255 258 261 263 265 269 271 275 278 280 280 280 279 282 280 280 277 277 278 275 278 282 277 276 272 271 272 267
222 220 222 225 226 223 221 227 233 239 243 246 247 247 250 254 257 260 263 268 272 273 273 276 277 278 278 278 276 280 277 280 282 280 281 280 284 286 277 281 281 287 269
209 212 212 211 209 208 213 219 227 235 240 241 241 243 246 250 255 261 265 265 266 268 271 272 273 274 274 274 274 274 277 275 279 279 283 285 285 284 288 285 284 293 267
201 205 209 209 210 212 214 217 222 227 231 234 239 243 247 250 252 254 258 262 265 267 266 266 265 264 266 268 270 274 275 274 276 279 279 278 277 279 281 284 290 281 263
192 190 190 192 192 192 195 199 202 207 215 221 227 234 239 244 248 252 254 256 259 262 264 266 265 262 262 265 268 270 272 274 276 277 278 279 281 285 284 281 284 286 270
189 189 187 190 191 191 194 199 206 211 216 221 227 233 238 241 243 245 249 252 255 258 260 262 261 260 260 262 266 269 270 271 272 274 275 280 285 286 286 283 282 283 272
195 192 193 194 200 201 204 211 219 225 228 231 235 240 243 244 246 248 251 255 257 259 262 264 266 267 269 272 273 274 275 277 279 279 279 279 279 282 285 284 282 283 274
202 202 204 206 207 204 212 215 218 222 226 230 234 238 240 243 247 250 253 255 258 261 263 267 269 272 274 275 277 277 280 285 292 295 294 292 288 286 286 284 285 280 270
211 211 217 213 207 206 208 207 209 217 226 232 233 234 237 242 247 250 252 256 260 264 268 271 274 276 278 280 281 284 288 294 295 293 293 292 290 287 283 283 282 273 264
214 213 213 211 209 210 210 213 219 232 237 236 234 235 239 243 245 248 252 255 260 265 270 273 277 280 281 283 284 285 284 283 286 288 287 289 292 290 292 286 279 270 262
212 212 216 212 211 212 215 218 228 237 236 230 228 230 232 233 235 238 244 255 265 273 278 284 286 288 292 295 296 289 292 292 292 293 293 294 294 293 291 292 282 271 266
210 213 214 212 212 214 220 227 231 229 224 222 220 220 219 219 222 229 244 260 272 288 300 309 312 306 306 302 299 298 293 294 298 303 300 299 303 306 297 284 274 262 260
209 208 206 211 214 219 222 224 225 219 215 213 207 203 203 203 203 208 212 232 264 282 298 308 312 313 312 313 314 303 297 299 302 299 302 306 311 309 299 283 270 259 258
208 214 212 214 217 218 219 220 216 211 205 199 195 192 191 192 195 209 225 251 266 272 276 293 303 307 310 313 319 316 311 300 299 296 299 297 295 299 291 280 269 264 263
207 212 212 212 215 218 215 209 204 201 196 192 190 188 186 190 200 211 222 237 246 252 296 301 305 319 321 323 334 331 324 319 309 307 302 301 298 294 294 291 286 280 274
208 205 207 211 209 207 204 200 195 193 194 189 187 187 193 195 199 204 211 218 223 253 296 348 3 360 345 348 350 350 345 338 333 327 323 314 312 313 312 306 302 294 291